Location: Korczew
(51.3586°N, 19.4491°E)
Time: 07:37:12
(UTC+00:00)

USA 229 DEB - Pass Details

Date: 19 May 2025
Orbit: 872 x 1339 km, 63.4° (Epoch: 14 June)

Event Time Altitude Azimuth Distance (km) Brightness Sun altitude
Exits shadow 23:20:44 18° 234° (SW) 2,153 4.9 -18.1°
Maximum altitude 23:25:32 75° 318° (NW) 1,045 3.7 -17.9°
Drops below altitude 10° 23:32:29 10° 44° (NE) 2,962 6.9 -17.7°
Sets 23:35:21 0° 47° (NE) 3,996 7.7 -17.6°
